Time,TemperatureF,DewpointF,PressureIn,WindDirection,WindDirectionDegrees,WindSpeedMPH,WindSpeedGustMPH,Humidity,HourlyPrecipIn,Conditions,Clouds,dailyrainin,SoftwareType,DateUTC
2013-07-07 00:01:00,61.3,55.1,29.91,East,88,0.0,0.0,80,0.00,,,0.00,Wunderground v.1.15,2013-07-07 07:01:00,
2013-07-07 00:06:00,61.2,55.3,29.92,East,88,0.0,0.0,81,0.00,,,0.00,Wunderground v.1.15,2013-07-07 07:06:00,
2013-07-07 00:11:00,61.0,55.1,29.92,East,88,0.0,0.0,81,0.00,,,0.00,Wunderground v.1.15,2013-07-07 07:11:00,
2013-07-07 00:18:00,60.7,54.8,29.91,East,88,0.0,0.0,81,0.00,,,0.00,Wunderground v.1.15,2013-07-07 07:18:00,
2013-07-07 00:24:00,60.5,54.3,29.91,East,88,0.0,0.0,80,0.00,,,0.00,Wunderground v.1.15,2013-07-07 07:24:00,
2013-07-07 00:29:00,60.3,54.1,29.91,East,88,0.0,0.0,80,0.00,,,0.00,Wunderground v.1.15,2013-07-07 07:29:00,
2013-07-07 00:34:00,60.2,54.7,29.91,East,88,0.0,0.0,82,0.00,,,0.00,Wunderground v.1.15,2013-07-07 07:34:00,
2013-07-07 00:40:00,59.9,54.4,29.91,East,88,0.0,0.0,82,0.00,,,0.00,Wunderground v.1.15,2013-07-07 07:40:00,
2013-07-07 00:45:00,59.7,53.9,29.91,East,88,0.0,0.0,81,0.00,,,0.00,Wunderground v.1.15,2013-07-07 07:45:00,
2013-07-07 00:51:00,59.5,54.0,29.91,East,88,0.0,0.0,82,0.00,,,0.00,Wunderground v.1.15,2013-07-07 07:51:00,
2013-07-07 00:57:00,59.4,54.2,29.91,East,88,0.0,0.0,83,0.00,,,0.00,Wunderground v.1.15,2013-07-07 07:57:00,
2013-07-07 01:03:00,59.1,53.9,29.91,East,88,0.0,0.0,83,0.00,,,0.00,Wunderground v.1.15,2013-07-07 08:03:00,
2013-07-07 01:08:00,59.0,54.2,29.91,East,88,0.0,0.0,84,0.00,,,0.00,Wunderground v.1.15,2013-07-07 08:08:00,
2013-07-07 01:14:00,58.8,54.0,29.91,East,88,0.0,0.0,84,0.00,,,0.00,Wunderground v.1.15,2013-07-07 08:14:00,
2013-07-07 01:19:00,58.6,54.1,29.91,East,88,0.0,0.0,85,0.00,,,0.00,Wunderground v.1.15,2013-07-07 08:19:00,
2013-07-07 01:24:00,58.5,54.0,29.91,East,88,0.0,0.0,85,0.00,,,0.00,Wunderground v.1.15,2013-07-07 08:24:00,
2013-07-07 01:30:00,58.3,53.8,29.91,East,88,0.0,0.0,85,0.00,,,0.00,Wunderground v.1.15,2013-07-07 08:30:00,
2013-07-07 01:36:00,58.2,53.7,29.91,East,88,0.0,0.0,85,0.00,,,0.00,Wunderground v.1.15,2013-07-07 08:36:00,
2013-07-07 01:42:00,58.0,53.8,29.91,East,88,0.0,0.0,86,0.00,,,0.00,Wunderground v.1.15,2013-07-07 08:42:00,
2013-07-07 01:48:00,57.9,53.7,29.90,East,88,0.0,0.0,86,0.00,,,0.00,Wunderground v.1.15,2013-07-07 08:48:00,
2013-07-07 01:53:00,57.8,53.6,29.90,East,88,0.0,0.0,86,0.00,,,0.00,Wunderground v.1.15,2013-07-07 08:53:00,
2013-07-07 01:58:00,57.7,53.9,29.90,East,88,0.0,0.0,87,0.00,,,0.00,Wunderground v.1.15,2013-07-07 08:58:00,
2013-07-07 02:04:00,57.6,53.8,29.90,East,88,0.0,0.0,87,0.00,,,0.00,Wunderground v.1.15,2013-07-07 09:04:00,
2013-07-07 02:09:00,57.4,53.6,29.90,East,88,0.0,0.0,87,0.00,,,0.00,Wunderground v.1.15,2013-07-07 09:09:00,
2013-07-07 02:15:00,57.4,53.9,29.90,East,88,0.0,0.0,88,0.00,,,0.00,Wunderground v.1.15,2013-07-07 09:15:00,
2013-07-07 02:20:00,57.2,53.7,29.90,East,88,0.0,0.0,88,0.00,,,0.00,Wunderground v.1.15,2013-07-07 09:20:00,
2013-07-07 02:26:00,57.1,53.9,29.91,East,88,0.0,0.0,89,0.00,,,0.00,Wunderground v.1.15,2013-07-07 09:26:00,
2013-07-07 02:31:00,57.1,53.9,29.90,East,88,0.0,0.0,89,0.00,,,0.00,Wunderground v.1.15,2013-07-07 09:31:00,
2013-07-07 02:37:00,57.0,53.8,29.90,East,88,0.0,0.0,89,0.00,,,0.00,Wunderground v.1.15,2013-07-07 09:37:00,
2013-07-07 02:42:00,56.9,54.0,29.90,East,88,0.0,0.0,90,0.00,,,0.00,Wunderground v.1.15,2013-07-07 09:42:00,
2013-07-07 02:48:00,56.8,53.9,29.90,East,88,0.0,0.0,90,0.00,,,0.00,Wunderground v.1.15,2013-07-07 09:48:00,
2013-07-07 02:53:00,56.7,53.8,29.90,East,88,0.0,0.0,90,0.00,,,0.00,Wunderground v.1.15,2013-07-07 09:53:00,
2013-07-07 02:59:00,56.6,53.7,29.90,East,88,0.0,0.0,90,0.00,,,0.00,Wunderground v.1.15,2013-07-07 09:59:00,
2013-07-07 03:05:00,56.5,53.9,29.90,East,88,0.0,0.0,91,0.00,,,0.00,Wunderground v.1.15,2013-07-07 10:05:00,
2013-07-07 03:10:00,56.4,53.5,29.90,East,88,0.0,2.0,90,0.00,,,0.00,Wunderground v.1.15,2013-07-07 10:10:00,
2013-07-07 03:15:00,56.3,53.4,29.90,East,88,0.0,0.0,90,0.00,,,0.00,Wunderground v.1.15,2013-07-07 10:15:00,
2013-07-07 03:21:00,56.2,53.3,29.91,East,88,0.0,0.0,90,0.00,,,0.00,Wunderground v.1.15,2013-07-07 10:21:00,
2013-07-07 03:26:00,56.1,53.5,29.91,East,88,0.0,0.0,91,0.00,,,0.00,Wunderground v.1.15,2013-07-07 10:26:00,
2013-07-07 03:32:00,56.1,53.5,29.90,East,88,0.0,0.0,91,0.00,,,0.00,Wunderground v.1.15,2013-07-07 10:32:00,
2013-07-07 03:37:00,56.0,53.4,29.91,East,88,0.0,0.0,91,0.00,,,0.00,Wunderground v.1.15,2013-07-07 10:37:00,
2013-07-07 03:42:00,55.9,53.3,29.91,East,88,0.0,0.0,91,0.00,,,0.00,Wunderground v.1.15,2013-07-07 10:42:00,
2013-07-07 03:48:00,55.9,53.3,29.90,East,88,0.0,0.0,91,0.00,,,0.00,Wunderground v.1.15,2013-07-07 10:48:00,
2013-07-07 03:54:00,55.9,53.3,29.90,East,88,0.0,0.0,91,0.00,,,0.00,Wunderground v.1.15,2013-07-07 10:54:00,
2013-07-07 03:59:00,55.9,53.3,29.90,East,88,0.0,0.0,91,0.00,,,0.00,Wunderground v.1.15,2013-07-07 10:59:00,
2013-07-07 04:05:00,55.8,53.2,29.91,East,88,0.0,0.0,91,0.00,,,0.00,Wunderground v.1.15,2013-07-07 11:05:00,
2013-07-07 04:10:00,55.8,53.2,29.91,East,88,0.0,3.0,91,0.00,,,0.00,Wunderground v.1.15,2013-07-07 11:10:00,
2013-07-07 04:16:00,55.7,53.1,29.91,East,88,0.0,0.0,91,0.00,,,0.00,Wunderground v.1.15,2013-07-07 11:16:00,
2013-07-07 04:21:00,55.6,53.0,29.91,East,88,0.0,0.0,91,0.00,,,0.00,Wunderground v.1.15,2013-07-07 11:21:00,
2013-07-07 04:27:00,55.5,52.9,29.91,East,88,0.0,0.0,91,0.00,,,0.00,Wunderground v.1.15,2013-07-07 11:27:00,
2013-07-07 04:33:00,55.4,53.1,29.91,East,88,0.0,0.0,92,0.00,,,0.00,Wunderground v.1.15,2013-07-07 11:33:00,
2013-07-07 04:38:00,55.2,52.9,29.91,East,88,0.0,0.0,92,0.00,,,0.00,Wunderground v.1.15,2013-07-07 11:38:00,
2013-07-07 04:43:00,55.1,52.8,29.91,East,88,0.0,0.0,92,0.00,,,0.00,Wunderground v.1.15,2013-07-07 11:43:00,
2013-07-07 04:49:00,55.0,52.7,29.91,East,88,0.0,1.0,92,0.00,,,0.00,Wunderground v.1.15,2013-07-07 11:49:00,
2013-07-07 04:55:00,54.9,52.6,29.91,East,88,0.0,0.0,92,0.00,,,0.00,Wunderground v.1.15,2013-07-07 11:55:00,
2013-07-07 05:00:00,54.8,52.5,29.91,East,88,0.0,0.0,92,0.00,,,0.00,Wunderground v.1.15,2013-07-07 12:00:00,
2013-07-07 05:06:00,54.7,52.7,29.91,East,88,0.0,0.0,93,0.00,,,0.00,Wunderground v.1.15,2013-07-07 12:06:00,
2013-07-07 05:11:00,54.7,52.7,29.92,East,88,0.0,0.0,93,0.00,,,0.00,Wunderground v.1.15,2013-07-07 12:11:00,
2013-07-07 05:17:00,54.6,52.6,29.92,East,88,0.0,0.0,93,0.00,,,0.00,Wunderground v.1.15,2013-07-07 12:17:00,
2013-07-07 05:23:00,54.6,52.6,29.92,East,88,0.0,0.0,93,0.00,,,0.00,Wunderground v.1.15,2013-07-07 12:23:00,
2013-07-07 05:29:00,54.5,52.5,29.92,East,88,0.0,0.0,93,0.00,,,0.00,Wunderground v.1.15,2013-07-07 12:29:00,
2013-07-07 05:34:00,54.5,52.5,29.92,East,88,0.0,0.0,93,0.00,,,0.00,Wunderground v.1.15,2013-07-07 12:34:00,
2013-07-07 05:40:00,54.5,52.8,29.92,East,88,0.0,0.0,94,0.00,,,0.00,Wunderground v.1.15,2013-07-07 12:40:00,
2013-07-07 05:46:00,54.6,52.9,29.92,East,88,0.0,0.0,94,0.00,,,0.00,Wunderground v.1.15,2013-07-07 12:46:00,
2013-07-07 05:52:00,54.5,52.8,29.92,East,88,0.0,0.0,94,0.00,,,0.00,Wunderground v.1.15,2013-07-07 12:52:00,
2013-07-07 05:58:00,54.5,52.8,29.93,East,88,0.0,0.0,94,0.00,,,0.00,Wunderground v.1.15,2013-07-07 12:58:00,
2013-07-07 06:03:00,54.5,52.8,29.93,East,88,0.0,0.0,94,0.00,,,0.00,Wunderground v.1.15,2013-07-07 13:03:00,
2013-07-07 06:09:00,54.5,52.8,29.93,East,88,0.0,0.0,94,0.00,,,0.00,Wunderground v.1.15,2013-07-07 13:09:00,
2013-07-07 06:14:00,54.5,53.1,29.93,East,88,0.0,0.0,95,0.00,,,0.00,Wunderground v.1.15,2013-07-07 13:14:00,
2013-07-07 06:20:00,54.5,53.1,29.93,East,88,0.0,0.0,95,0.00,,,0.00,Wunderground v.1.15,2013-07-07 13:20:00,
2013-07-07 06:25:00,54.6,53.2,29.93,SE,143,0.0,1.0,95,0.00,,,0.00,Wunderground v.1.15,2013-07-07 13:25:00,
2013-07-07 06:31:00,54.7,53.3,29.93,SE,146,0.0,2.0,95,0.00,,,0.00,Wunderground v.1.15,2013-07-07 13:31:00,
2013-07-07 06:36:00,54.8,53.4,29.94,SSW,210,1.0,5.0,95,0.00,,,0.00,Wunderground v.1.15,2013-07-07 13:36:00,
2013-07-07 06:41:00,55.0,53.9,29.94,SSW,212,1.0,5.0,96,0.00,,,0.00,Wunderground v.1.15,2013-07-07 13:41:00,
2013-07-07 06:47:00,55.3,54.2,29.94,SSW,212,0.0,1.0,96,0.00,,,0.00,Wunderground v.1.15,2013-07-07 13:47:00,
2013-07-07 06:53:00,55.6,54.5,29.94,SSW,212,0.0,1.0,96,0.00,,,0.00,Wunderground v.1.15,2013-07-07 13:53:00,
2013-07-07 06:58:00,55.9,54.8,29.94,SSW,213,0.0,0.0,96,0.00,,,0.00,Wunderground v.1.15,2013-07-07 13:58:00,
2013-07-07 07:04:00,56.2,55.4,29.94,SSW,213,0.0,0.0,97,0.00,,,0.00,Wunderground v.1.15,2013-07-07 14:04:00,
2013-07-07 07:09:00,56.5,55.4,29.94,SSW,213,0.0,0.0,96,0.00,,,0.00,Wunderground v.1.15,2013-07-07 14:09:00,
2013-07-07 07:15:00,56.8,56.0,29.94,SSW,213,0.0,0.0,97,0.00,,,0.00,Wunderground v.1.15,2013-07-07 14:15:00,
2013-07-07 07:20:00,56.9,55.8,29.94,SSW,213,0.0,1.0,96,0.00,,,0.00,Wunderground v.1.15,2013-07-07 14:20:00,
2013-07-07 07:26:00,57.2,56.1,29.94,SW,221,1.0,3.0,96,0.00,,,0.00,Wunderground v.1.15,2013-07-07 14:26:00,
2013-07-07 07:31:00,57.5,56.4,29.94,SW,221,0.0,3.0,96,0.00,,,0.00,Wunderground v.1.15,2013-07-07 14:31:00,
2013-07-07 07:37:00,57.7,56.6,29.94,SW,236,0.0,4.0,96,0.00,,,0.00,Wunderground v.1.15,2013-07-07 14:37:00,
2013-07-07 07:42:00,57.9,56.5,29.94,SW,236,1.0,4.0,95,0.00,,,0.00,Wunderground v.1.15,2013-07-07 14:42:00,
2013-07-07 07:47:00,58.1,56.7,29.94,SSW,211,1.0,1.0,95,0.00,,,0.00,Wunderground v.1.15,2013-07-07 14:47:00,
2013-07-07 07:52:00,58.3,56.6,29.94,SSW,211,1.0,3.0,94,0.00,,,0.00,Wunderground v.1.15,2013-07-07 14:52:00,
2013-07-07 07:58:00,58.6,56.6,29.94,SSW,211,0.0,1.0,93,0.00,,,0.00,Wunderground v.1.15,2013-07-07 14:58:00,
2013-07-07 08:04:00,59.0,57.0,29.94,SSW,211,0.0,0.0,93,0.00,,,0.00,Wunderground v.1.15,2013-07-07 15:04:00,
2013-07-07 08:10:00,59.3,57.3,29.94,SSW,211,0.0,0.0,93,0.00,,,0.00,Wunderground v.1.15,2013-07-07 15:10:00,
2013-07-07 08:15:00,59.6,57.3,29.94,SSW,211,0.0,0.0,92,0.00,,,0.00,Wunderground v.1.15,2013-07-07 15:15:00,
2013-07-07 08:21:00,59.8,57.2,29.94,SSW,198,1.0,3.0,91,0.00,,,0.00,Wunderground v.1.15,2013-07-07 15:21:00,
2013-07-07 08:26:00,60.0,57.1,29.94,SSW,198,1.0,2.0,90,0.00,,,0.00,Wunderground v.1.15,2013-07-07 15:26:00,
2013-07-07 08:32:00,60.3,57.4,29.94,SSW,198,1.0,3.0,90,0.00,,,0.00,Wunderground v.1.15,2013-07-07 15:32:00,
2013-07-07 08:38:00,60.6,57.7,29.94,SW,232,2.0,5.0,90,0.00,,,0.00,Wunderground v.1.15,2013-07-07 15:38:00,
2013-07-07 08:43:00,60.9,57.3,29.94,SW,232,2.0,2.0,88,0.00,,,0.00,Wunderground v.1.15,2013-07-07 15:43:00,
2013-07-07 08:48:00,61.2,57.6,29.94,SW,232,1.0,4.0,88,0.00,,,0.00,Wunderground v.1.15,2013-07-07 15:48:00,
2013-07-07 08:54:00,61.5,57.9,29.94,SW,232,2.0,6.0,88,0.00,,,0.00,Wunderground v.1.15,2013-07-07 15:54:00,
2013-07-07 08:59:00,61.8,58.2,29.94,SW,232,1.0,6.0,88,0.00,,,0.00,Wunderground v.1.15,2013-07-07 15:59:00,
2013-07-07 09:05:00,62.1,58.2,29.94,West,264,2.0,4.0,87,0.00,,,0.00,Wunderground v.1.15,2013-07-07 16:05:00,
2013-07-07 09:10:00,62.4,58.5,29.94,SW,233,2.0,5.0,87,0.00,,,0.00,Wunderground v.1.15,2013-07-07 16:10:00,
2013-07-07 09:16:00,62.7,57.8,29.94,SW,236,1.0,4.0,84,0.00,,,0.00,Wunderground v.1.15,2013-07-07 16:16:00,
2013-07-07 09:21:00,63.0,58.4,29.94,WSW,237,1.0,5.0,85,0.00,,,0.00,Wunderground v.1.15,2013-07-07 16:21:00,
2013-07-07 09:27:00,63.2,58.6,29.94,WSW,238,3.0,5.0,85,0.00,,,0.00,Wunderground v.1.15,2013-07-07 16:27:00,
2013-07-07 09:33:00,63.5,58.6,29.94,SW,229,3.0,3.0,84,0.00,,,0.00,Wunderground v.1.15,2013-07-07 16:33:00,
2013-07-07 09:38:00,63.9,59.0,29.94,SW,233,1.0,3.0,84,0.00,,,0.00,Wunderground v.1.15,2013-07-07 16:38:00,
2013-07-07 09:44:00,64.3,59.0,29.94,West,261,2.0,2.0,83,0.00,,,0.00,Wunderground v.1.15,2013-07-07 16:44:00,
2013-07-07 09:50:00,64.8,59.5,29.94,WSW,258,2.0,7.0,83,0.00,,,0.00,Wunderground v.1.15,2013-07-07 16:50:00,
2013-07-07 09:55:00,65.7,60.1,29.94,SW,226,3.0,5.0,82,0.00,,,0.00,Wunderground v.1.15,2013-07-07 16:55:00,
2013-07-07 10:01:00,66.7,60.0,29.94,NW,312,3.0,6.0,79,0.00,,,0.00,Wunderground v.1.15,2013-07-07 17:01:00,
2013-07-07 10:06:00,67.9,60.8,29.94,SW,225,3.0,5.0,78,0.00,,,0.00,Wunderground v.1.15,2013-07-07 17:06:00,
2013-07-07 10:12:00,69.0,61.1,29.94,WSW,243,4.0,7.0,76,0.00,,,0.00,Wunderground v.1.15,2013-07-07 17:12:00,
2013-07-07 10:17:00,69.8,61.1,29.94,WNW,283,3.0,7.0,74,0.00,,,0.00,Wunderground v.1.15,2013-07-07 17:17:00,
2013-07-07 10:23:00,70.8,61.7,29.94,SW,225,3.0,6.0,73,0.00,,,0.00,Wunderground v.1.15,2013-07-07 17:23:00,
2013-07-07 10:28:00,71.1,60.8,29.94,SW,231,3.0,6.0,70,0.00,,,0.00,Wunderground v.1.15,2013-07-07 17:28:00,
2013-07-07 10:34:00,70.7,60.4,29.94,WSW,255,3.0,3.0,70,0.00,,,0.00,Wunderground v.1.15,2013-07-07 17:34:00,
2013-07-07 10:39:00,70.3,61.2,29.94,NW,311,2.0,7.0,73,0.00,,,0.00,Wunderground v.1.15,2013-07-07 17:39:00,
2013-07-07 10:45:00,70.5,61.0,29.94,NW,318,3.0,4.0,72,0.00,,,0.00,Wunderground v.1.15,2013-07-07 17:45:00,
2013-07-07 10:50:00,70.6,61.1,29.94,SW,231,3.0,6.0,72,0.00,,,0.00,Wunderground v.1.15,2013-07-07 17:50:00,
2013-07-07 10:56:00,70.1,61.0,29.94,SW,225,4.0,4.0,73,0.00,,,0.00,Wunderground v.1.15,2013-07-07 17:56:00,
2013-07-07 11:01:00,69.9,60.5,29.94,SW,235,4.0,7.0,72,0.00,,,0.00,Wunderground v.1.15,2013-07-07 18:01:00,
2013-07-07 11:07:00,69.9,61.6,29.94,West,271,5.0,6.0,75,0.00,,,0.00,Wunderground v.1.15,2013-07-07 18:07:00,
2013-07-07 11:12:00,70.6,61.1,29.94,WSW,251,4.0,5.0,72,0.00,,,0.00,Wunderground v.1.15,2013-07-07 18:12:00,
2013-07-07 11:17:00,70.8,60.9,29.94,SW,221,3.0,10.0,71,0.00,,,0.00,Wunderground v.1.15,2013-07-07 18:17:00,
2013-07-07 11:23:00,71.0,60.7,29.94,SW,225,4.0,8.0,70,0.00,,,0.00,Wunderground v.1.15,2013-07-07 18:23:00,
2013-07-07 11:28:00,71.1,60.8,29.94,SW,214,5.0,8.0,70,0.00,,,0.00,Wunderground v.1.15,2013-07-07 18:28:00,
2013-07-07 11:34:00,71.1,60.8,29.94,SW,222,3.0,8.0,70,0.00,,,0.00,Wunderground v.1.15,2013-07-07 18:34:00,
2013-07-07 11:39:00,71.2,60.9,29.94,SW,227,3.0,8.0,70,0.00,,,0.00,Wunderground v.1.15,2013-07-07 18:39:00,
2013-07-07 11:45:00,71.2,60.9,29.94,West,263,3.0,8.0,70,0.00,,,0.00,Wunderground v.1.15,2013-07-07 18:45:00,
2013-07-07 11:50:00,72.0,61.3,29.94,WSW,242,4.0,8.0,69,0.00,,,0.00,Wunderground v.1.15,2013-07-07 18:50:00,
2013-07-07 11:56:00,72.4,61.2,29.94,SW,217,4.0,7.0,68,0.00,,,0.00,Wunderground v.1.15,2013-07-07 18:56:00,
2013-07-07 12:02:00,72.2,61.9,29.94,SSW,211,4.0,5.0,70,0.00,,,0.00,Wunderground v.1.15,2013-07-07 19:02:00,
2013-07-07 12:08:00,72.4,60.8,29.94,SSW,198,4.0,7.0,67,0.00,,,0.00,Wunderground v.1.15,2013-07-07 19:08:00,
2013-07-07 12:13:00,72.4,61.2,29.94,SW,215,3.0,8.0,68,0.00,,,0.00,Wunderground v.1.15,2013-07-07 19:13:00,
2013-07-07 12:19:00,72.2,61.5,29.94,WSW,257,3.0,9.0,69,0.00,,,0.00,Wunderground v.1.15,2013-07-07 19:19:00,
2013-07-07 12:25:00,72.8,61.2,29.94,WSW,251,3.0,6.0,67,0.00,,,0.00,Wunderground v.1.15,2013-07-07 19:25:00,
2013-07-07 12:30:00,73.1,61.9,29.94,WSW,242,4.0,6.0,68,0.00,,,0.00,Wunderground v.1.15,2013-07-07 19:30:00,
2013-07-07 12:35:00,73.3,60.4,29.94,SW,235,4.0,8.0,64,0.00,,,0.00,Wunderground v.1.15,2013-07-07 19:35:00,
2013-07-07 12:41:00,73.3,61.3,29.94,SW,225,5.0,8.0,66,0.00,,,0.00,Wunderground v.1.15,2013-07-07 19:41:00,
2013-07-07 12:47:00,74.2,62.5,29.94,West,278,5.0,7.0,67,0.00,,,0.00,Wunderground v.1.15,2013-07-07 19:47:00,
2013-07-07 12:52:00,75.1,61.2,29.94,SW,224,3.0,9.0,62,0.00,,,0.00,Wunderground v.1.15,2013-07-07 19:52:00,
2013-07-07 12:57:00,75.2,61.7,29.94,SW,216,4.0,9.0,63,0.00,,,0.00,Wunderground v.1.15,2013-07-07 19:57:00,
2013-07-07 13:02:00,74.7,62.1,29.94,WSW,244,4.0,4.0,65,0.00,,,0.00,Wunderground v.1.15,2013-07-07 20:02:00,
2013-07-07 13:08:00,74.1,61.1,29.93,WSW,256,4.0,8.0,64,0.00,,,0.00,Wunderground v.1.15,2013-07-07 20:08:00,
2013-07-07 13:13:00,74.3,60.9,29.93,SSW,197,4.0,5.0,63,0.00,,,0.00,Wunderground v.1.15,2013-07-07 20:13:00,
2013-07-07 13:19:00,73.7,59.9,29.94,SW,230,5.0,8.0,62,0.00,,,0.00,Wunderground v.1.15,2013-07-07 20:19:00,
2013-07-07 13:24:00,73.5,61.0,29.93,SW,236,3.0,3.0,65,0.00,,,0.00,Wunderground v.1.15,2013-07-07 20:24:00,
2013-07-07 13:29:00,73.5,61.4,29.94,WNW,298,2.0,8.0,66,0.00,,,0.00,Wunderground v.1.15,2013-07-07 20:29:00,
2013-07-07 13:35:00,73.9,61.8,29.94,WNW,287,3.0,4.0,66,0.00,,,0.00,Wunderground v.1.15,2013-07-07 20:35:00,
2013-07-07 13:40:00,74.4,61.9,29.93,SW,234,3.0,4.0,65,0.00,,,0.00,Wunderground v.1.15,2013-07-07 20:40:00,
2013-07-07 13:45:00,74.8,61.4,29.93,WSW,248,3.0,6.0,63,0.00,,,0.00,Wunderground v.1.15,2013-07-07 20:45:00,
2013-07-07 13:51:00,74.7,60.8,29.93,SW,217,3.0,6.0,62,0.00,,,0.00,Wunderground v.1.15,2013-07-07 20:51:00,
2013-07-07 13:56:00,74.6,61.2,29.93,SSW,211,2.0,6.0,63,0.00,,,0.00,Wunderground v.1.15,2013-07-07 20:56:00,
2013-07-07 14:01:00,74.4,59.6,29.93,SSW,213,3.0,7.0,60,0.00,,,0.00,Wunderground v.1.15,2013-07-07 21:01:00,
2013-07-07 14:07:00,74.1,61.6,29.93,SW,223,3.0,8.0,65,0.00,,,0.00,Wunderground v.1.15,2013-07-07 21:07:00,
2013-07-07 14:12:00,73.7,59.9,29.93,SW,235,3.0,5.0,62,0.00,,,0.00,Wunderground v.1.15,2013-07-07 21:12:00,
2013-07-07 14:17:00,73.3,61.3,29.93,SSW,211,3.0,5.0,66,0.00,,,0.00,Wunderground v.1.15,2013-07-07 21:17:00,
2013-07-07 14:22:00,72.8,60.8,29.93,West,277,3.0,3.0,66,0.00,,,0.00,Wunderground v.1.15,2013-07-07 21:22:00,
2013-07-07 14:28:00,72.8,60.8,29.93,SW,223,3.0,5.0,66,0.00,,,0.00,Wunderground v.1.15,2013-07-07 21:28:00,
2013-07-07 14:33:00,73.1,61.5,29.93,SW,217,3.0,6.0,67,0.00,,,0.00,Wunderground v.1.15,2013-07-07 21:33:00,
2013-07-07 14:38:00,73.5,61.0,29.93,WSW,247,4.0,6.0,65,0.00,,,0.00,Wunderground v.1.15,2013-07-07 21:38:00,
2013-07-07 14:44:00,74.4,61.9,29.92,SW,223,3.0,4.0,65,0.00,,,0.00,Wunderground v.1.15,2013-07-07 21:44:00,
2013-07-07 14:49:00,75.7,62.7,29.92,SW,230,2.0,7.0,64,0.00,,,0.00,Wunderground v.1.15,2013-07-07 21:49:00,
2013-07-07 14:55:00,76.7,62.2,29.92,SW,221,3.0,7.0,61,0.00,,,0.00,Wunderground v.1.15,2013-07-07 21:55:00,
2013-07-07 15:00:00,76.9,62.4,29.92,WSW,241,3.0,7.0,61,0.00,,,0.00,Wunderground v.1.15,2013-07-07 22:00:00,
2013-07-07 15:05:00,77.4,61.5,29.92,NW,316,2.0,5.0,58,0.00,,,0.00,Wunderground v.1.15,2013-07-07 22:05:00,
2013-07-07 15:10:00,77.8,62.3,29.92,WSW,249,3.0,7.0,59,0.00,,,0.00,Wunderground v.1.15,2013-07-07 22:10:00,
2013-07-07 15:16:00,78.2,62.2,29.92,West,263,4.0,5.0,58,0.00,,,0.00,Wunderground v.1.15,2013-07-07 22:16:00,
2013-07-07 15:22:00,78.8,63.3,29.92,WNW,295,3.0,3.0,59,0.00,,,0.00,Wunderground v.1.15,2013-07-07 22:22:00,
2013-07-07 15:27:00,79.1,61.5,29.92,WNW,292,3.0,4.0,55,0.00,,,0.00,Wunderground v.1.15,2013-07-07 22:27:00,
2013-07-07 15:32:00,79.0,60.9,29.92,NW,312,3.0,4.0,54,0.00,,,0.00,Wunderground v.1.15,2013-07-07 22:32:00,
2013-07-07 15:38:00,78.9,62.4,29.92,WSW,246,4.0,6.0,57,0.00,,,0.00,Wunderground v.1.15,2013-07-07 22:38:00,
2013-07-07 15:44:00,78.9,60.3,29.92,NW,313,4.0,5.0,53,0.00,,,0.00,Wunderground v.1.15,2013-07-07 22:44:00,
2013-07-07 15:49:00,79.1,62.6,29.92,NW,304,4.0,5.0,57,0.00,,,0.00,Wunderground v.1.15,2013-07-07 22:49:00,
2013-07-07 15:54:00,79.4,60.8,29.92,WNW,288,2.0,3.0,53,0.00,,,0.00,Wunderground v.1.15,2013-07-07 22:54:00,
2013-07-07 16:00:00,79.7,61.6,29.92,WSW,243,3.0,8.0,54,0.00,,,0.00,Wunderground v.1.15,2013-07-07 23:00:00,
2013-07-07 16:05:00,79.4,61.3,29.92,WSW,238,4.0,5.0,54,0.00,,,0.00,Wunderground v.1.15,2013-07-07 23:05:00,
2013-07-07 16:09:00,79.1,61.5,29.91,WNW,294,3.0,5.0,55,0.00,,,0.00,Wunderground v.1.15,2013-07-07 23:09:00,
2013-07-07 16:15:00,79.2,61.6,29.91,SW,234,3.0,5.0,55,0.00,,,0.00,Wunderground v.1.15,2013-07-07 23:15:00,
2013-07-07 16:20:00,79.1,60.5,29.91,WSW,240,1.0,5.0,53,0.00,,,0.00,Wunderground v.1.15,2013-07-07 23:20:00,
2013-07-07 16:26:00,79.8,61.7,29.91,WNW,300,2.0,4.0,54,0.00,,,0.00,Wunderground v.1.15,2013-07-07 23:26:00,
2013-07-07 16:32:00,80.7,62.0,29.91,SW,230,2.0,4.0,53,0.00,,,0.00,Wunderground v.1.15,2013-07-07 23:32:00,
2013-07-07 16:37:00,81.2,61.9,29.91,WNW,284,3.0,7.0,52,0.00,,,0.00,Wunderground v.1.15,2013-07-07 23:37:00,
2013-07-07 16:43:00,81.5,61.6,29.91,NNW,337,3.0,4.0,51,0.00,,,0.00,Wunderground v.1.15,2013-07-07 23:43:00,
2013-07-07 16:48:00,81.8,61.3,29.91,West,271,2.0,7.0,50,0.00,,,0.00,Wunderground v.1.15,2013-07-07 23:48:00,
2013-07-07 16:54:00,81.7,61.2,29.91,SW,225,3.0,5.0,50,0.00,,,0.00,Wunderground v.1.15,2013-07-07 23:54:00,
2013-07-07 16:59:00,80.5,59.6,29.90,WSW,250,4.0,7.0,49,0.00,,,0.00,Wunderground v.1.15,2013-07-07 23:59:00,
2013-07-07 17:05:00,79.6,60.4,29.90,West,260,4.0,7.0,52,0.00,,,0.00,Wunderground v.1.15,2013-07-08 00:05:00,
2013-07-07 17:11:00,79.4,59.1,29.90,NW,313,3.0,7.0,50,0.00,,,0.00,Wunderground v.1.15,2013-07-08 00:11:00,
2013-07-07 17:17:00,79.4,60.2,29.90,NW,309,3.0,5.0,52,0.00,,,0.00,Wunderground v.1.15,2013-07-08 00:17:00,
2013-07-07 17:22:00,79.4,59.1,29.90,NW,326,4.0,5.0,50,0.00,,,0.00,Wunderground v.1.15,2013-07-08 00:22:00,
2013-07-07 17:28:00,79.5,60.9,29.90,WSW,258,4.0,6.0,53,0.00,,,0.00,Wunderground v.1.15,2013-07-08 00:28:00,
2013-07-07 17:33:00,79.4,60.2,29.90,WNW,287,4.0,5.0,52,0.00,,,0.00,Wunderground v.1.15,2013-07-08 00:33:00,
2013-07-07 17:39:00,78.9,59.2,29.90,WNW,284,4.0,8.0,51,0.00,,,0.00,Wunderground v.1.15,2013-07-08 00:39:00,
2013-07-07 17:44:00,78.4,60.4,29.89,West,268,4.0,6.0,54,0.00,,,0.00,Wunderground v.1.15,2013-07-08 00:44:00,
2013-07-07 17:49:00,77.8,60.3,29.89,SW,224,3.0,6.0,55,0.00,,,0.00,Wunderground v.1.15,2013-07-08 00:49:00,
2013-07-07 17:55:00,77.2,60.3,29.89,West,271,2.0,6.0,56,0.00,,,0.00,Wunderground v.1.15,2013-07-08 00:55:00,
2013-07-07 18:00:00,76.9,61.0,29.89,NW,315,3.0,6.0,58,0.00,,,0.00,Wunderground v.1.15,2013-07-08 01:00:00,
2013-07-07 18:06:00,76.7,59.8,29.89,WSW,239,3.0,4.0,56,0.00,,,0.00,Wunderground v.1.15,2013-07-08 01:06:00,
2013-07-07 18:11:00,76.4,60.5,29.89,WSW,255,2.0,4.0,58,0.00,,,0.00,Wunderground v.1.15,2013-07-08 01:11:00,
2013-07-07 18:17:00,76.1,60.2,29.89,West,263,2.0,5.0,58,0.00,,,0.00,Wunderground v.1.15,2013-07-08 01:17:00,
2013-07-07 18:22:00,75.9,60.1,29.89,WNW,293,3.0,3.0,58,0.00,,,0.00,Wunderground v.1.15,2013-07-08 01:22:00,
2013-07-07 18:28:00,75.6,59.8,29.89,NW,305,3.0,5.0,58,0.00,,,0.00,Wunderground v.1.15,2013-07-08 01:28:00,
2013-07-07 18:33:00,75.3,60.0,29.89,WSW,242,3.0,4.0,59,0.00,,,0.00,Wunderground v.1.15,2013-07-08 01:33:00,
2013-07-07 18:39:00,74.9,60.1,29.89,WSW,257,3.0,6.0,60,0.00,,,0.00,Wunderground v.1.15,2013-07-08 01:39:00,
2013-07-07 18:44:00,74.6,59.8,29.89,SW,229,2.0,3.0,60,0.00,,,0.00,Wunderground v.1.15,2013-07-08 01:44:00,
2013-07-07 18:50:00,74.4,60.1,29.89,WSW,254,2.0,5.0,61,0.00,,,0.00,Wunderground v.1.15,2013-07-08 01:50:00,
2013-07-07 18:55:00,74.2,59.4,29.90,WSW,250,3.0,6.0,60,0.00,,,0.00,Wunderground v.1.15,2013-07-08 01:55:00,
2013-07-07 19:00:00,74.0,59.2,29.90,WSW,252,3.0,6.0,60,0.00,,,0.00,Wunderground v.1.15,2013-07-08 02:00:00,
2013-07-07 19:06:00,73.7,58.9,29.90,SW,226,2.0,3.0,60,0.00,,,0.00,Wunderground v.1.15,2013-07-08 02:06:00,
2013-07-07 19:12:00,73.4,58.7,29.90,West,264,2.0,3.0,60,0.00,,,0.00,Wunderground v.1.15,2013-07-08 02:12:00,
2013-07-07 19:18:00,73.3,59.0,29.90,SW,228,2.0,4.0,61,0.00,,,0.00,Wunderground v.1.15,2013-07-08 02:18:00,
2013-07-07 19:23:00,73.1,58.8,29.90,West,267,3.0,3.0,61,0.00,,,0.00,Wunderground v.1.15,2013-07-08 02:23:00,
2013-07-07 19:28:00,72.8,58.6,29.90,WSW,246,3.0,4.0,61,0.00,,,0.00,Wunderground v.1.15,2013-07-08 02:28:00,
2013-07-07 19:34:00,72.6,58.4,29.90,WSW,243,2.0,4.0,61,0.00,,,0.00,Wunderground v.1.15,2013-07-08 02:34:00,
2013-07-07 19:39:00,72.4,56.8,29.91,SW,228,3.0,5.0,58,0.00,,,0.00,Wunderground v.1.15,2013-07-08 02:39:00,
2013-07-07 19:44:00,72.4,57.7,29.91,SW,235,3.0,4.0,60,0.00,,,0.00,Wunderground v.1.15,2013-07-08 02:44:00,
2013-07-07 19:50:00,72.2,58.0,29.91,WSW,241,2.0,4.0,61,0.00,,,0.00,Wunderground v.1.15,2013-07-08 02:50:00,
2013-07-07 19:56:00,72.0,57.8,29.91,SW,234,2.0,4.0,61,0.00,,,0.00,Wunderground v.1.15,2013-07-08 02:56:00,
2013-07-07 20:01:00,71.8,56.7,29.91,SW,235,2.0,4.0,59,0.00,,,0.00,Wunderground v.1.15,2013-07-08 03:01:00,
2013-07-07 20:06:00,71.6,56.5,29.91,SW,225,2.0,7.0,59,0.00,,,0.00,Wunderground v.1.15,2013-07-08 03:06:00,
2013-07-07 20:12:00,71.5,57.8,29.91,SW,225,2.0,2.0,62,0.00,,,0.00,Wunderground v.1.15,2013-07-08 03:12:00,
2013-07-07 20:17:00,71.3,57.6,29.92,SW,232,2.0,5.0,62,0.00,,,0.00,Wunderground v.1.15,2013-07-08 03:17:00,
2013-07-07 20:23:00,71.1,56.5,29.92,SW,226,3.0,3.0,60,0.00,,,0.00,Wunderground v.1.15,2013-07-08 03:23:00,
2013-07-07 20:29:00,70.9,57.2,29.92,SW,226,2.0,3.0,62,0.00,,,0.00,Wunderground v.1.15,2013-07-08 03:29:00,
2013-07-07 20:34:00,70.6,57.4,29.92,SW,226,1.0,3.0,63,0.00,,,0.00,Wunderground v.1.15,2013-07-08 03:34:00,
2013-07-07 20:39:00,70.4,57.2,29.92,SW,226,2.0,3.0,63,0.00,,,0.00,Wunderground v.1.15,2013-07-08 03:39:00,
2013-07-07 20:45:00,70.0,57.3,29.92,SW,226,1.0,2.0,64,0.00,,,0.00,Wunderground v.1.15,2013-07-08 03:45:00,
2013-07-07 20:50:00,69.6,57.3,29.92,SW,226,0.0,2.0,65,0.00,,,0.00,Wunderground v.1.15,2013-07-08 03:50:00,
2013-07-07 20:55:00,69.2,56.9,29.92,SW,226,0.0,0.0,65,0.00,,,0.00,Wunderground v.1.15,2013-07-08 03:55:00,
2013-07-07 21:01:00,68.9,57.5,29.92,SW,226,0.0,4.0,67,0.00,,,0.00,Wunderground v.1.15,2013-07-08 04:01:00,
2013-07-07 21:05:00,68.6,57.2,29.92,SW,226,1.0,1.0,67,0.00,,,0.00,Wunderground v.1.15,2013-07-08 04:05:00,
2013-07-07 21:06:00,68.5,57.5,29.92,SW,226,1.0,1.0,68,0.00,,,0.00,Wunderground v.1.15,2013-07-08 04:06:00,
2013-07-07 21:07:00,68.4,57.4,29.92,SW,226,1.0,1.0,68,0.00,,,0.00,Wunderground v.1.15,2013-07-08 04:07:00,
2013-07-07 21:13:00,68.0,57.4,29.92,SW,226,1.0,1.0,69,0.00,,,0.00,Wunderground v.1.15,2013-07-08 04:13:00,
2013-07-07 21:14:00,67.9,57.4,29.92,SW,226,1.0,1.0,69,0.00,,,0.00,Wunderground v.1.15,2013-07-08 04:14:00,
2013-07-07 21:20:00,67.5,57.8,29.92,SSW,213,1.0,4.0,71,0.00,,,0.00,Wunderground v.1.15,2013-07-08 04:20:00,
2013-07-07 21:25:00,67.1,57.8,29.93,SW,225,1.0,2.0,72,0.00,,,0.00,Wunderground v.1.15,2013-07-08 04:25:00,
2013-07-07 21:31:00,66.8,57.9,29.93,SW,225,1.0,3.0,73,0.00,,,0.00,Wunderground v.1.15,2013-07-08 04:31:00,
2013-07-07 21:36:00,66.5,58.0,29.93,SW,225,0.0,1.0,74,0.00,,,0.00,Wunderground v.1.15,2013-07-08 04:36:00,
2013-07-07 21:42:00,66.2,58.0,29.93,SW,225,0.0,0.0,75,0.00,,,0.00,Wunderground v.1.15,2013-07-08 04:42:00,
2013-07-07 21:47:00,65.9,57.7,29.93,SW,225,0.0,0.0,75,0.00,,,0.00,Wunderground v.1.15,2013-07-08 04:47:00,
2013-07-07 21:53:00,65.8,58.0,29.93,SW,225,0.0,0.0,76,0.00,,,0.00,Wunderground v.1.15,2013-07-08 04:53:00,
2013-07-07 21:59:00,65.6,58.2,29.93,SW,225,0.0,0.0,77,0.00,,,0.00,Wunderground v.1.15,2013-07-08 04:59:00,
2013-07-07 22:04:00,65.4,58.0,29.93,SW,225,0.0,0.0,77,0.00,,,0.00,Wunderground v.1.15,2013-07-08 05:04:00,
2013-07-07 22:09:00,65.3,58.3,29.93,SW,225,0.0,0.0,78,0.00,,,0.00,Wunderground v.1.15,2013-07-08 05:09:00,
2013-07-07 22:15:00,65.2,58.5,29.93,SW,225,0.0,0.0,79,0.00,,,0.00,Wunderground v.1.15,2013-07-08 05:15:00,
2013-07-07 22:20:00,65.0,58.0,29.93,SW,225,0.0,0.0,78,0.00,,,0.00,Wunderground v.1.15,2013-07-08 05:20:00,
2013-07-07 22:26:00,64.8,58.1,29.93,SW,225,0.0,0.0,79,0.00,,,0.00,Wunderground v.1.15,2013-07-08 05:26:00,
2013-07-07 22:31:00,64.7,58.4,29.93,SW,225,0.0,1.0,80,0.00,,,0.00,Wunderground v.1.15,2013-07-08 05:31:00,
2013-07-07 22:37:00,64.5,58.2,29.94,SW,225,0.0,0.0,80,0.00,,,0.00,Wunderground v.1.15,2013-07-08 05:37:00,
2013-07-07 22:42:00,64.3,58.0,29.94,SW,225,0.0,0.0,80,0.00,,,0.00,Wunderground v.1.15,2013-07-08 05:42:00,
2013-07-07 22:48:00,64.1,58.1,29.94,SW,236,1.0,4.0,81,0.00,,,0.00,Wunderground v.1.15,2013-07-08 05:48:00,
2013-07-07 22:54:00,63.9,58.0,29.94,SW,236,1.0,2.0,81,0.00,,,0.00,Wunderground v.1.15,2013-07-08 05:54:00,
2013-07-07 22:59:00,63.7,58.1,29.94,SW,230,0.0,2.0,82,0.00,,,0.00,Wunderground v.1.15,2013-07-08 05:59:00,
2013-07-07 23:04:00,63.6,58.3,29.94,SW,232,0.0,3.0,83,0.00,,,0.00,Wunderground v.1.15,2013-07-08 06:04:00,
2013-07-07 23:10:00,63.4,58.1,29.94,SW,232,0.0,3.0,83,0.00,,,0.00,Wunderground v.1.15,2013-07-08 06:10:00,
2013-07-07 23:15:00,63.2,58.3,29.94,SW,232,0.0,0.0,84,0.00,,,0.00,Wunderground v.1.15,2013-07-08 06:15:00,
2013-07-07 23:21:00,63.1,58.5,29.94,SW,232,0.0,1.0,85,0.00,,,0.00,Wunderground v.1.15,2013-07-08 06:21:00,
2013-07-07 23:27:00,62.9,58.3,29.95,SW,232,0.0,0.0,85,0.00,,,0.00,Wunderground v.1.15,2013-07-08 06:27:00,
2013-07-07 23:32:00,62.8,58.2,29.95,SW,232,0.0,0.0,85,0.00,,,0.00,Wunderground v.1.15,2013-07-08 06:32:00,
2013-07-07 23:38:00,62.7,58.1,29.95,SW,232,0.0,1.0,85,0.00,,,0.00,Wunderground v.1.15,2013-07-08 06:38:00,
2013-07-07 23:43:00,62.5,57.9,29.95,SW,232,0.0,0.0,85,0.00,,,0.00,Wunderground v.1.15,2013-07-08 06:43:00,
2013-07-07 23:49:00,62.4,57.8,29.95,SW,232,0.0,4.0,85,0.00,,,0.00,Wunderground v.1.15,2013-07-08 06:49:00,
2013-07-07 23:54:00,62.2,58.0,29.95,SW,232,0.0,3.0,86,0.00,,,0.00,Wunderground v.1.15,2013-07-08 06:54:00,